| time (UTC) | temp C | wind direction | speed KPH | gust KPH | rain 1hr cm | rain 24hr cm | rain mn cm | humidity % | barometer mb |
| 20260505192034 | 12 | 213 | 8.0 | 20.9 | 0.00 | 0.00 | 0.00 | 37 | 1008.5 |
| 20260505191552 | 12 | 295 | 4.8 | 12.9 | 0.00 | 0.00 | 0.00 | 37 | 1008.4 |
| 20260505191030 | 11 | 317 | 6.4 | 20.9 | 0.00 | 0.00 | 0.00 | 36 | 1008.5 |
| 20260505190548 | 11 | 299 | 8.0 | 17.7 | 0.00 | 0.00 | 0.00 | 36 | 1008.6 |
| 20260505190027 | 11 | 298 | 6.4 | 20.9 | 0.00 | 0.00 | 0.00 | 35 | 1008.6 |
| 20260505185525 | 11 | 291 | 3.2 | 16.1 | 0.00 | 0.00 | 0.00 | 36 | 1008.6 |
| 20260505185023 | 11 | 307 | 6.4 | 17.7 | 0.00 | 0.00 | 0.00 | 35 | 1008.6 |
| 20260505184521 | 11 | 281 | 3.2 | 12.9 | 0.00 | 0.00 | 0.00 | 36 | 1008.7 |
| 20260505184020 | 11 | 274 | 4.8 | 14.5 | 0.00 | 0.00 | 0.00 | 38 | 1008.7 |
| 20260505183518 | 11 | 274 | 4.8 | 16.1 | 0.00 | 0.00 | 0.00 | 37 | 1008.6 |
| 20260505183056 | 11 | 283 | 3.2 | 9.7 | 0.00 | 0.00 | 0.00 | 38 | 1008.5 |
| 20260505182533 | 11 | 301 | 6.4 | 16.1 | 0.00 | 0.00 | 0.00 | 37 | 1008.5 |
| 20260505182032 | 11 | 289 | 3.2 | 14.5 | 0.00 | 0.00 | 0.00 | 37 | 1008.6 |
| 20260505181530 | 11 | 326 | 4.8 | 17.7 | 0.00 | 0.00 | 0.00 | 36 | 1008.5 |
| 20260505181028 | 11 | 317 | 9.7 | 22.5 | 0.00 | 0.00 | 0.00 | 36 | 1008.6 |
| 20260505180546 | 11 | 265 | 6.4 | 25.7 | 0.00 | 0.00 | 0.00 | 39 | 1008.4 |
| 20260505180024 | 11 | 282 | 3.2 | 11.3 | 0.00 | 0.00 | 0.00 | 39 | 1008.4 |
| 20260505175543 | 11 | 318 | 3.2 | 11.3 | 0.00 | 0.00 | 0.00 | 38 | 1008.5 |
| 20260505175021 | 11 | 330 | 6.4 | 16.1 | 0.00 | 0.00 | 0.00 | 37 | 1008.4 |
| 20260505174539 | 11 | 311 | 4.8 | 16.1 | 0.00 | 0.00 | 0.00 | 37 | 1008.5 |
| 20260505174018 | 11 | 309 | 6.4 | 24.1 | 0.00 | 0.00 | 0.00 | 36 | 1008.5 |
| 20260505173529 | 11 | 287 | 6.4 | 12.9 | 0.00 | 0.00 | 0.00 | 37 | 1008.4 |
| 20260505173027 | 11 | 286 | 6.4 | 14.5 | 0.00 | 0.00 | 0.00 | 37 | 1008.5 |
| 20260505172525 | 11 | 308 | 4.8 | 14.5 | 0.00 | 0.00 | 0.00 | 38 | 1008.6 |
| 20260505172024 | 11 | 299 | 6.4 | 12.9 | 0.00 | 0.00 | 0.00 | 38 | 1008.5 |
| 20260505171522 | 11 | 285 | 4.8 | 14.5 | 0.00 | 0.00 | 0.00 | 37 | 1008.4 |
| 20260505171020 | 10 | 299 | 4.8 | 14.5 | 0.00 | 0.00 | 0.00 | 37 | 1008.5 |
| 20260505170519 | 11 | 319 | 8.0 | 24.1 | 0.00 | 0.00 | 0.00 | 35 | 1008.4 |
| 20260505170017 | 11 | 328 | 8.0 | 30.6 | 0.00 | 0.00 | 0.00 | 36 | 1008.4 |
| 20260505165554 | 11 | 310 | 4.8 | 14.5 | 0.00 | 0.00 | 0.00 | 37 | 1008.4 |
| 20260505165032 | 11 | 320 | 6.4 | 22.5 | 0.00 | 0.00 | 0.00 | 36 | 1008.6 |
| 20260505164530 | 11 | 327 | 6.4 | 14.5 | 0.00 | 0.00 | 0.00 | 38 | 1008.5 |
| 20260505164048 | 11 | 295 | 4.8 | 11.3 | 0.00 | 0.00 | 0.00 | 37 | 1008.5 |
| 20260505163547 | 11 | 312 | 8.0 | 24.1 | 0.00 | 0.00 | 0.00 | 37 | 1008.6 |
| 20260505163025 | 11 | 305 | 4.8 | 14.5 | 0.00 | 0.00 | 0.00 | 36 | 1008.7 |
| 20260505162523 | 11 | 296 | 8.0 | 20.9 | 0.00 | 0.00 | 0.00 | 38 | 1008.6 |
| 20260505162102 | 11 | 305 | 6.4 | 17.7 | 0.00 | 0.00 | 0.00 | 37 | 1008.7 |
| 20260505161520 | 11 | 320 | 6.4 | 14.5 | 0.00 | 0.00 | 0.00 | 37 | 1008.6 |
| 20260505161018 | 11 | 307 | 4.8 | 16.1 | 0.00 | 0.00 | 0.00 | 36 | 1008.7 |
| 20260505160516 | 11 | 291 | 4.8 | 14.5 | 0.00 | 0.00 | 0.00 | 38 | 1008.5 |
| 20260505153043 | 10 | 311 | 4.8 | 14.5 | 0.00 | 0.00 | 0.00 | 39 | 1008.2 |
| 20260505152521 | 10 | 250 | 4.8 | 12.9 | 0.00 | 0.00 | 0.00 | 41 | 1008.2 |
| 20260505152019 | 10 | 322 | 3.2 | 14.5 | 0.00 | 0.00 | 0.00 | 39 | 1008.3 |
| 20260505151518 | 10 | 311 | 3.2 | 11.3 | 0.00 | 0.00 | 0.00 | 41 | 1008.1 |
| 20260505151035 | 10 | 312 | 3.2 | 17.7 | 0.00 | 0.00 | 0.00 | 40 | 1008.1 |
| 20260505150533 | 10 | 337 | 3.2 | 11.3 | 0.00 | 0.00 | 0.00 | 40 | 1008.1 |
| 20260505140551 | 8 | 308 | 4.8 | 14.5 | 0.00 | 0.00 | 0.00 | 49 | 1008.4 |
| 20260505125023 | 4 | 327 | 1.6 | 4.8 | 0.00 | 0.00 | 0.00 | 63 | 1008.0 |
| 20260505124542 | 4 | 319 | 1.6 | 3.2 | 0.00 | 0.00 | 0.00 | 64 | 1008.0 |
| 20260505124020 | 3 | 317 | 0.0 | 1.6 | 0.00 | 0.00 | 0.00 | 64 | 1007.7 |
| 20260505123518 | 3 | 314 | 0.0 | 1.6 | 0.00 | 0.00 | 0.00 | 65 | 1007.7 |
| 20260505123016 | 3 | 325 | 1.6 | 6.4 | 0.00 | 0.00 | 0.00 | 65 | 1007.7 |
| 20260505122534 | 3 | 310 | 0.0 | 4.8 | 0.00 | 0.00 | 0.00 | 65 | 1007.6 |
| 20260505122032 | 3 | 327 | 0.0 | 1.6 | 0.00 | 0.00 | 0.00 | 66 | 1007.5 |
| 20260505121550 | 3 | 328 | 0.0 | 1.6 | 0.00 | 0.00 | 0.00 | 66 | 1007.5 |
| 20260505121028 | 3 | 327 | 0.0 | 4.8 | 0.00 | 0.00 | 0.00 | 67 | 1007.3 |
| 20260505120527 | 2 | 0.0 | 0.0 | 0.00 | 0.00 | 0.00 | 68 | 1007.3 | |
| 20260505120025 | 2 | 0.0 | 0.0 | 0.00 | 0.00 | 0.00 | 70 | 1007.1 | |
| 20260505115523 | 2 | 0.0 | 0.0 | 0.00 | 0.00 | 0.00 | 72 | 1007.1 | |
| 20260505115042 | 1 | 0.0 | 0.0 | 0.00 | 0.00 | 0.00 | 73 | 1006.8 | |
| 20260505114519 | 1 | 0.0 | 0.0 | 0.00 | 0.00 | 0.00 | 73 | 1006.8 | |
| 20260505114018 | 1 | 0.0 | 0.0 | 0.00 | 0.00 | 0.00 | 73 | 1006.6 | |
| 20260505113516 | 1 | 311 | 1.6 | 3.2 | 0.00 | 0.00 | 0.00 | 73 | 1006.5 |
| 20260505113033 | 1 | 295 | 1.6 | 4.8 | 0.00 | 0.00 | 0.00 | 73 | 1006.4 |
| 20260505112531 | 1 | 295 | 1.6 | 3.2 | 0.00 | 0.00 | 0.00 | 73 | 1006.3 |
| 20260505112030 | 1 | 299 | 1.6 | 4.8 | 0.00 | 0.00 | 0.00 | 72 | 1006.2 |
| 20260505111528 | 1 | 327 | 1.6 | 3.2 | 0.00 | 0.00 | 0.00 | 71 | 1006.2 |
| 20260505111026 | 2 | 327 | 0.0 | 3.2 | 0.00 | 0.00 | 0.00 | 70 | 1006.4 |
| 20260505110525 | 2 | 327 | 0.0 | 1.6 | 0.00 | 0.00 | 0.00 | 68 | 1006.3 |
| 20260505102027 | 3 | 0.0 | 0.0 | 0.00 | 0.00 | 0.00 | 62 | 1005.8 | |
| 20260505101525 | 3 | 0.0 | 0.0 | 0.00 | 0.00 | 0.00 | 62 | 1005.9 | |
| 20260505101024 | 3 | 322 | 0.0 | 3.2 | 0.00 | 0.00 | 0.00 | 62 | 1005.8 |
| 20260505100522 | 3 | 327 | 1.6 | 3.2 | 0.00 | 0.00 | 0.00 | 63 | 1005.7 |
| 20260505100021 | 3 | 324 | 1.6 | 9.7 | 0.00 | 0.00 | 0.00 | 63 | 1005.5 |
| 20260505095539 | 3 | 0.0 | 0.0 | 0.00 | 0.00 | 0.00 | 63 | 1005.5 | |
| 20260505095017 | 3 | 0.0 | 0.0 | 0.00 | 0.00 | 0.00 | 62 | 1005.4 | |
| 20260505094534 | 3 | 0.0 | 0.0 | 0.00 | 0.00 | 0.00 | 61 | 1005.5 | |
| 20260505094032 | 4 | 0.0 | 0.0 | 0.00 | 0.00 | 0.00 | 61 | 1005.4 | |
| 20260505093531 | 4 | 321 | 0.0 | 1.6 | 0.00 | 0.00 | 0.00 | 62 | 1005.3 |
| 20260505093029 | 4 | 321 | 1.6 | 3.2 | 0.00 | 0.00 | 0.00 | 61 | 1005.3 |
| 20260505092527 | 5 | 0.0 | 0.0 | 0.00 | 0.00 | 0.00 | 59 | 1005.2 | |
| 20260505092025 | 5 | 321 | 0.0 | 3.2 | 0.00 | 0.00 | 0.00 | 58 | 1005.3 |
| 20260505091524 | 5 | 321 | 1.6 | 3.2 | 0.00 | 0.00 | 0.00 | 57 | 1005.1 |
| 20260505091022 | 5 | 318 | 0.0 | 3.2 | 0.00 | 0.00 | 0.00 | 57 | 1005.2 |
| 20260505090520 | 5 | 312 | 0.0 | 1.6 | 0.00 | 0.00 | 0.00 | 57 | 1005.2 |
| 20260505090018 | 5 | 313 | 1.6 | 4.8 | 0.00 | 0.00 | 0.00 | 57 | 1005.1 |
| 20260505085517 | 5 | 292 | 0.0 | 4.8 | 0.00 | 0.00 | 0.00 | 58 | 1005.0 |
| 20260505085034 | 5 | 0.0 | 0.0 | 0.00 | 0.00 | 0.00 | 58 | 1005.0 | |
| 20260505084532 | 5 | 297 | 1.6 | 4.8 | 0.00 | 0.00 | 0.00 | 59 | 1005.0 |
| 20260505084030 | 5 | 296 | 1.6 | 4.8 | 0.00 | 0.00 | 0.00 | 60 | 1004.9 |
| 20260505083529 | 5 | 302 | 1.6 | 6.4 | 0.00 | 0.00 | 0.00 | 60 | 1004.7 |
| 20260505083027 | 5 | 306 | 0.0 | 3.2 | 0.00 | 0.00 | 0.00 | 61 | 1004.7 |
| 20260505082525 | 4 | 306 | 0.0 | 1.6 | 0.00 | 0.00 | 0.00 | 62 | 1004.7 |
| 20260505082024 | 4 | 0.0 | 0.0 | 0.00 | 0.00 | 0.00 | 63 | 1004.5 | |
| 20260505081522 | 4 | 306 | 0.0 | 1.6 | 0.00 | 0.00 | 0.00 | 64 | 1004.4 |
| 20260505081020 | 4 | 0.0 | 0.0 | 0.00 | 0.00 | 0.00 | 64 | 1004.4 | |
| 20260505080519 | 4 | 306 | 0.0 | 1.6 | 0.00 | 0.00 | 0.00 | 62 | 1004.2 |
| 20260505080037 | 4 | 0.0 | 0.0 | 0.00 | 0.00 | 0.00 | 61 | 1004.2 | |
| 20260505075534 | 4 | 0.0 | 0.0 | 0.00 | 0.00 | 0.00 | 63 | 1004.3 | |
| 20260505075032 | 5 | 0.0 | 0.0 | 0.00 | 0.00 | 0.00 | 63 | 1004.2 | |
| 20260505074530 | 5 | 0.0 | 0.0 | 0.00 | 0.00 | 0.00 | 62 | 1004.2 | |
| 20260505074029 | 5 | 0.0 | 0.0 | 0.00 | 0.00 | 0.00 | 62 | 1004.1 | |
| 20260505073527 | 5 | 0.0 | 0.0 | 0.00 | 0.00 | 0.00 | 62 | 1004.1 | |
| 20260505073025 | 5 | 0.0 | 0.0 | 0.00 | 0.00 | 0.00 | 59 | 1004.1 | |
| 20260505072523 | 6 | 0.0 | 0.0 | 0.00 | 0.00 | 0.00 | 58 | 1004.1 | |
| 20260505072022 | 6 | 0.0 | 0.0 | 0.00 | 0.00 | 0.00 | 55 | 1004.2 | |
| 20260505071520 | 6 | 0.0 | 0.0 | 0.00 | 0.00 | 0.00 | 52 | 1004.2 | |
| 20260505071019 | 6 | 0.0 | 0.0 | 0.00 | 0.00 | 0.00 | 53 | 1004.1 | |
| 20260505070517 | 6 | 0.0 | 0.0 | 0.00 | 0.00 | 0.00 | 54 | 1004.2 | |
| 20260505070034 | 6 | 0.0 | 0.0 | 0.00 | 0.00 | 0.00 | 53 | 1004.3 | |
| 20260505065532 | 6 | 0.0 | 0.0 | 0.00 | 0.00 | 0.00 | 52 | 1004.2 | |
| 20260505065030 | 6 | 0.0 | 0.0 | 0.00 | 0.00 | 0.00 | 51 | 1004.1 | |
| 20260505064529 | 6 | 0.0 | 0.0 | 0.00 | 0.00 | 0.00 | 51 | 1004.2 | |
| 20260505064047 | 6 | 0.0 | 0.0 | 0.00 | 0.00 | 0.00 | 50 | 1004.3 | |
| 20260505063525 | 7 | 306 | 0.0 | 1.6 | 0.00 | 0.00 | 0.00 | 50 | 1004.2 |
| 20260505063023 | 7 | 306 | 0.0 | 3.2 | 0.00 | 0.00 | 0.00 | 50 | 1004.4 |
| 20260505062522 | 7 | 306 | 0.0 | 1.6 | 0.00 | 0.00 | 0.00 | 50 | 1004.3 |
| 20260505062020 | 7 | 306 | 1.6 | 3.2 | 0.00 | 0.00 | 0.00 | 50 | 1004.3 |
| 20260505061518 | 7 | 0.0 | 0.0 | 0.00 | 0.00 | 0.00 | 50 | 1004.4 | |
| 20260505061016 | 7 | 307 | 0.0 | 1.6 | 0.00 | 0.00 | 0.00 | 50 | 1004.4 |
| 20260505060534 | 7 | 0.0 | 0.0 | 0.00 | 0.00 | 0.00 | 50 | 1004.5 | |
| 20260505060032 | 7 | 307 | 0.0 | 1.6 | 0.00 | 0.00 | 0.00 | 50 | 1004.4 |
| 20260505055530 | 7 | 306 | 1.6 | 4.8 | 0.00 | 0.00 | 0.00 | 50 | 1004.5 |
| 20260505055028 | 7 | 307 | 0.0 | 1.6 | 0.00 | 0.00 | 0.00 | 49 | 1004.5 |
| 20260505054527 | 7 | 307 | 0.0 | 1.6 | 0.00 | 0.00 | 0.00 | 49 | 1004.4 |
| 20260505054025 | 7 | 307 | 0.0 | 1.6 | 0.00 | 0.00 | 0.00 | 49 | 1004.4 |
| 20260505053523 | 8 | 307 | 1.6 | 3.2 | 0.00 | 0.00 | 0.00 | 49 | 1004.3 |
| 20260505053022 | 8 | 307 | 1.6 | 3.2 | 0.00 | 0.00 | 0.00 | 49 | 1004.3 |
| 20260505052540 | 8 | 307 | 1.6 | 4.8 | 0.00 | 0.00 | 0.00 | 48 | 1004.1 |
| 20260505052018 | 8 | 305 | 1.6 | 3.2 | 0.00 | 0.00 | 0.00 | 48 | 1004.1 |
| 20260505051517 | 8 | 300 | 1.6 | 9.7 | 0.00 | 0.00 | 0.00 | 47 | 1004.1 |
| 20260505051034 | 8 | 289 | 3.2 | 12.9 | 0.00 | 0.00 | 0.00 | 47 | 1004.0 |
| 20260505050532 | 8 | 299 | 3.2 | 12.9 | 0.00 | 0.00 | 0.00 | 47 | 1003.9 |
| 20260505041533 | 10 | 328 | 4.8 | 17.7 | 0.00 | 0.00 | 0.00 | 44 | 1003.5 |
| 20260505041031 | 10 | 311 | 6.4 | 14.5 | 0.00 | 0.00 | 0.00 | 44 | 1003.4 |
| 20260505040530 | 10 | 324 | 4.8 | 11.3 | 0.00 | 0.00 | 0.00 | 44 | 1003.2 |
| 20260505040028 | 10 | 309 | 6.4 | 17.7 | 0.00 | 0.00 | 0.00 | 43 | 1003.2 |
| 20260505035526 | 10 | 297 | 4.8 | 16.1 | 0.00 | 0.00 | 0.00 | 44 | 1003.2 |
| 20260505035024 | 10 | 320 | 3.2 | 9.7 | 0.00 | 0.00 | 0.00 | 44 | 1003.3 |
| 20260505034523 | 10 | 329 | 4.8 | 16.1 | 0.00 | 0.00 | 0.00 | 43 | 1003.1 |
| 20260505034021 | 10 | 323 | 4.8 | 17.7 | 0.00 | 0.00 | 0.00 | 43 | 1002.9 |
| 20260505033518 | 10 | 319 | 4.8 | 16.1 | 0.00 | 0.00 | 0.00 | 43 | 1002.9 |
| 20260505033016 | 10 | 318 | 3.2 | 6.4 | 0.00 | 0.00 | 0.00 | 43 | 1002.8 |
| 20260505032533 | 10 | 316 | 4.8 | 16.1 | 0.00 | 0.00 | 0.00 | 43 | 1002.8 |
| 20260505032031 | 10 | 322 | 4.8 | 14.5 | 0.00 | 0.00 | 0.00 | 43 | 1002.7 |
| 20260505031529 | 10 | 329 | 4.8 | 14.5 | 0.00 | 0.00 | 0.00 | 44 | 1002.6 |
| 20260505031027 | 11 | 320 | 6.4 | 14.5 | 0.00 | 0.00 | 0.00 | 45 | 1002.5 |
| 20260505030525 | 11 | 316 | 3.2 | 9.7 | 0.00 | 0.00 | 0.00 | 44 | 1002.6 |
| 20260505030043 | 11 | 315 | 6.4 | 24.1 | 0.00 | 0.00 | 0.00 | 44 | 1002.5 |
| 20260505025522 | 11 | 311 | 1.6 | 6.4 | 0.00 | 0.00 | 0.00 | 44 | 1002.3 |
| 20260505025019 | 11 | 310 | 3.2 | 11.3 | 0.00 | 0.00 | 0.00 | 43 | 1002.1 |
| 20260505024517 | 11 | 304 | 4.8 | 16.1 | 0.00 | 0.00 | 0.00 | 43 | 1002.1 |
| 20260505024035 | 12 | 316 | 6.4 | 20.9 | 0.00 | 0.00 | 0.00 | 43 | 1002.1 |
| 20260505023532 | 12 | 317 | 6.4 | 16.1 | 0.00 | 0.00 | 0.00 | 43 | 1001.8 |
| 20260505023030 | 12 | 313 | 8.0 | 20.9 | 0.00 | 0.00 | 0.00 | 42 | 1001.7 |
| 20260505022529 | 12 | 325 | 6.4 | 14.5 | 0.00 | 0.00 | 0.00 | 42 | 1001.6 |
| 20260505022026 | 12 | 317 | 8.0 | 24.1 | 0.00 | 0.00 | 0.00 | 42 | 1001.5 |
| 20260505021523 | 12 | 315 | 8.0 | 22.5 | 0.00 | 0.00 | 0.00 | 41 | 1001.3 |
| 20260505021022 | 12 | 321 | 8.0 | 22.5 | 0.00 | 0.00 | 0.00 | 42 | 1001.2 |
| 20260505020540 | 12 | 318 | 4.8 | 14.5 | 0.00 | 0.00 | 0.00 | 42 | 1001.1 |
| 20260505020018 | 12 | 296 | 3.2 | 6.4 | 0.00 | 0.00 | 0.00 | 41 | 1000.9 |
| 20260505015535 | 13 | 307 | 4.8 | 17.7 | 0.00 | 0.00 | 0.00 | 41 | 1000.8 |
| 20260505015052 | 13 | 326 | 4.8 | 25.7 | 0.00 | 0.00 | 0.00 | 41 | 1000.7 |
| 20260505014530 | 13 | 322 | 9.7 | 24.1 | 0.00 | 0.00 | 0.00 | 41 | 1000.6 |
| 20260505014029 | 13 | 321 | 8.0 | 25.7 | 0.00 | 0.00 | 0.00 | 40 | 1000.5 |
| 20260505013527 | 13 | 329 | 4.8 | 20.9 | 0.00 | 0.00 | 0.00 | 40 | 1000.4 |
| 20260505013024 | 13 | 320 | 8.0 | 22.5 | 0.00 | 0.00 | 0.00 | 40 | 1000.2 |
| 20260505012522 | 13 | 318 | 6.4 | 17.7 | 0.00 | 0.00 | 0.00 | 39 | 1000.2 |
| 20260505012041 | 14 | 321 | 4.8 | 9.7 | 0.00 | 0.00 | 0.00 | 39 | 999.9 |
| 20260505011519 | 14 | 328 | 4.8 | 11.3 | 0.00 | 0.00 | 0.00 | 38 | 999.9 |
| 20260505011017 | 14 | 316 | 8.0 | 17.7 | 0.00 | 0.00 | 0.00 | 39 | 999.8 |
| 20260505010554 | 14 | 305 | 6.4 | 20.9 | 0.00 | 0.00 | 0.00 | 39 | 999.6 |
| 20260505010052 | 14 | 312 | 6.4 | 20.9 | 0.00 | 0.00 | 0.00 | 39 | 999.5 |
| 20260505005530 | 15 | 321 | 6.4 | 14.5 | 0.00 | 0.00 | 0.00 | 38 | 999.5 |
| 20260505005028 | 15 | 341 | 6.4 | 16.1 | 0.00 | 0.00 | 0.00 | 38 | 999.4 |
| 20260505004607 | 15 | 333 | 4.8 | 16.1 | 0.00 | 0.00 | 0.00 | 38 | 999.2 |
| 20260505004045 | 15 | 330 | 6.4 | 14.5 | 0.00 | 0.00 | 0.00 | 37 | 999.4 |
| 20260505003523 | 15 | 326 | 6.4 | 22.5 | 0.00 | 0.00 | 0.00 | 37 | 999.4 |
| 20260505003041 | 15 | 319 | 6.4 | 20.9 | 0.00 | 0.00 | 0.00 | 36 | 999.5 |
| 20260505002519 | 15 | 326 | 4.8 | 11.3 | 0.00 | 0.00 | 0.00 | 36 | 999.4 |
| 20260505002017 | 15 | 318 | 6.4 | 20.9 | 0.00 | 0.00 | 0.00 | 36 | 999.3 |
| 20260505001535 | 16 | 323 | 4.8 | 14.5 | 0.00 | 0.00 | 0.00 | 36 | 999.4 |
| 20260505001032 | 16 | 322 | 4.8 | 11.3 | 0.00 | 0.00 | 0.00 | 35 | 999.3 |
| 20260505000531 | 16 | 316 | 8.0 | 27.4 | 0.00 | 0.00 | 0.00 | 35 | 999.2 |
| 20260505000049 | 16 | 327 | 6.4 | 22.5 | 0.00 | 0.00 | 0.00 | 34 | 999.2 |
| 20260504235527 | 16 | 315 | 8.0 | 17.7 | 0.00 | 0.00 | 0.00 | 35 | 999.2 |
| 20260504235045 | 16 | 318 | 6.4 | 20.9 | 0.00 | 0.00 | 0.00 | 35 | 999.1 |
| 20260504234523 | 16 | 312 | 6.4 | 11.3 | 0.00 | 0.00 | 0.00 | 35 | 999.0 |
| 20260504234021 | 16 | 325 | 6.4 | 20.9 | 0.00 | 0.00 | 0.00 | 34 | 999.0 |
| 20260504233519 | 16 | 335 | 6.4 | 20.9 | 0.00 | 0.00 | 0.00 | 34 | 998.7 |
| 20260504233030 | 17 | 322 | 4.8 | 16.1 | 0.00 | 0.00 | 0.00 | 33 | 998.8 |
| 20260504232534 | 17 | 320 | 8.0 | 16.1 | 0.00 | 0.00 | 0.00 | 34 | 998.8 |
| 20260504232032 | 17 | 319 | 6.4 | 22.5 | 0.00 | 0.00 | 0.00 | 33 | 998.8 |
| 20260504231530 | 17 | 314 | 12.9 | 35.4 | 0.00 | 0.00 | 0.00 | 31 | 998.7 |
| 20260504231028 | 17 | 326 | 8.0 | 27.4 | 0.00 | 0.00 | 0.00 | 31 | 998.8 |
| 20260504230526 | 17 | 309 | 4.8 | 14.5 | 0.00 | 0.00 | 0.00 | 31 | 998.5 |
| 20260504230024 | 17 | 323 | 8.0 | 24.1 | 0.00 | 0.00 | 0.00 | 30 | 998.6 |
| 20260504225523 | 17 | 303 | 8.0 | 25.7 | 0.00 | 0.00 | 0.00 | 30 | 998.4 |
| 20260504225021 | 17 | 313 | 6.4 | 22.5 | 0.00 | 0.00 | 0.00 | 30 | 998.3 |
| 20260504224519 | 17 | 299 | 8.0 | 22.5 | 0.00 | 0.00 | 0.00 | 30 | 998.2 |
| 20260504224017 | 18 | 314 | 4.8 | 24.1 | 0.00 | 0.00 | 0.00 | 30 | 998.1 |
| 20260504223535 | 18 | 317 | 4.8 | 17.7 | 0.00 | 0.00 | 0.00 | 29 | 998.0 |
| 20260504223033 | 18 | 318 | 8.0 | 30.6 | 0.00 | 0.00 | 0.00 | 30 | 997.9 |
| 20260504222530 | 18 | 311 | 8.0 | 33.8 | 0.00 | 0.00 | 0.00 | 30 | 997.8 |
| 20260504222028 | 18 | 329 | 8.0 | 27.4 | 0.00 | 0.00 | 0.00 | 30 | 997.7 |
| 20260504221607 | 18 | 322 | 6.4 | 17.7 | 0.00 | 0.00 | 0.00 | 31 | 997.9 |
| 20260504221025 | 18 | 308 | 6.4 | 25.7 | 0.00 | 0.00 | 0.00 | 30 | 997.7 |
| 20260504220523 | 18 | 311 | 6.4 | 16.1 | 0.00 | 0.00 | 0.00 | 30 | 997.7 |
| 20260504220021 | 18 | 316 | 6.4 | 22.5 | 0.00 | 0.00 | 0.00 | 31 | 997.6 |
| 20260504215519 | 18 | 315 | 6.4 | 20.9 | 0.00 | 0.00 | 0.00 | 31 | 997.5 |
| 20260504215017 | 18 | 303 | 3.2 | 12.9 | 0.00 | 0.00 | 0.00 | 31 | 997.6 |
| 20260504214535 | 18 | 331 | 4.8 | 20.9 | 0.00 | 0.00 | 0.00 | 30 | 997.5 |
| 20260504214033 | 18 | 331 | 8.0 | 24.1 | 0.00 | 0.00 | 0.00 | 30 | 997.6 |
| 20260504213531 | 18 | 304 | 6.4 | 25.7 | 0.00 | 0.00 | 0.00 | 32 | 997.3 |
| 20260504213049 | 18 | 318 | 6.4 | 17.7 | 0.00 | 0.00 | 0.00 | 32 | 997.4 |
| 20260504212527 | 18 | 304 | 3.2 | 12.9 | 0.00 | 0.00 | 0.00 | 31 | 997.4 |
| 20260504212026 | 18 | 328 | 6.4 | 17.7 | 0.00 | 0.00 | 0.00 | 31 | 997.4 |
| 20260504211544 | 18 | 313 | 6.4 | 12.9 | 0.00 | 0.00 | 0.00 | 32 | 997.4 |
| 20260504211022 | 18 | 317 | 6.4 | 14.5 | 0.00 | 0.00 | 0.00 | 32 | 997.3 |
| 20260504210521 | 18 | 331 | 6.4 | 20.9 | 0.00 | 0.00 | 0.00 | 32 | 997.4 |
| 20260504210019 | 18 | 313 | 6.4 | 25.7 | 0.00 | 0.00 | 0.00 | 31 | 997.4 |
| 20260504205517 | 19 | 334 | 8.0 | 30.6 | 0.00 | 0.00 | 0.00 | 31 | 997.4 |
| 20260504205035 | 19 | 318 | 6.4 | 16.1 | 0.00 | 0.00 | 0.00 | 30 | 997.5 |
| 20260504204613 | 20 | 337 | 9.7 | 25.7 | 0.00 | 0.00 | 0.00 | 30 | 997.6 |
| 20260504204051 | 20 | 313 | 8.0 | 22.5 | 0.00 | 0.00 | 0.00 | 29 | 997.4 |
| 20260504203529 | 20 | 297 | 9.7 | 27.4 | 0.00 | 0.00 | 0.00 | 28 | 997.4 |
| 20260504203027 | 20 | 332 | 9.7 | 24.1 | 0.00 | 0.00 | 0.00 | 28 | 997.4 |
| 20260504202525 | 20 | 328 | 9.7 | 24.1 | 0.00 | 0.00 | 0.00 | 28 | 997.3 |
| 20260504202024 | 21 | 314 | 9.7 | 24.1 | 0.00 | 0.00 | 0.00 | 28 | 996.9 |
| 20260504201522 | 21 | 315 | 8.0 | 29.0 | 0.00 | 0.00 | 0.00 | 28 | 997.0 |
| 20260504201020 | 21 | 303 | 9.7 | 25.7 | 0.00 | 0.00 | 0.00 | 29 | 996.9 |
| 20260504200519 | 21 | 306 | 9.7 | 27.4 | 0.00 | 0.00 | 0.00 | 29 | 996.7 |
| 20260504200017 | 21 | 312 | 4.8 | 24.1 | 0.00 | 0.00 | 0.00 | 32 | 996.4 |
| 20260504195534 | 21 | 310 | 8.0 | 27.4 | 0.00 | 0.00 | 0.00 | 32 | 996.6 |
| 20260504195032 | 21 | 329 | 8.0 | 25.7 | 0.00 | 0.00 | 0.00 | 31 | 996.4 |
| 20260504194530 | 22 | 309 | 6.4 | 17.7 | 0.00 | 0.00 | 0.00 | 32 | 996.4 |
| 20260504194029 | 22 | 240 | 6.4 | 24.1 | 0.00 | 0.00 | 0.00 | 32 | 996.4 |
| 20260504193527 | 22 | 330 | 6.4 | 12.9 | 0.00 | 0.00 | 0.00 | 32 | 996.3 |
| 20260504193045 | 22 | 311 | 6.4 | 22.5 | 0.00 | 0.00 | 0.00 | 31 | 996.3 |
| 20260504192523 | 22 | 306 | 6.4 | 22.5 | 0.00 | 0.00 | 0.00 | 31 | 996.3 |